Terminal Aerodrome Forecast
Issued by NWS Albany, NY

Home | Current Version | Previous Version | Text Only | Print | Product List | Glossary On
Versions: 1 2 3 4 5 6 7 8 9 10 11 12 13 14 15 16 17 18 19 20 21
000
FTUS41 KALY 300200 AAA
TAFALB
TAF AMD
KALB 300259Z 3003/3024 17014G22KT 2SM -SN BR OVC020
     FM300600 17010G17KT 3/4SM -SN BR VV007
     FM301200 21007KT 3SM -SHSN OVC015
     FM301500 31012G19KT P6SM VCSH BKN035 OVC060=

USA.gov is the U.S. government's official web portal to all federal, state and local government web resources and services.